TimeAKST,TemperatureF,Dew PointF,Humidity,Sea Level PressureIn,VisibilityMPH,Wind Direction,Wind SpeedMPH,Gust SpeedMPH,PrecipitationIn,Events,Conditions,WindDirDegrees,DateUTC
12:16 AM,12.2,-2.2,53,30.01,10.0,North,8.1,-,N/A,,Clear,10,2012-11-15 09:16:00
12:36 AM,12.2,-2.2,53,30.02,10.0,NNE,15.0,25.3,N/A,,Clear,20,2012-11-15 09:36:00
12:56 AM,12.2,-2.2,53,30.03,10.0,North,17.3,23.0,N/A,,Clear,10,2012-11-15 09:56:00
1:16 AM,12.2,-2.2,53,30.03,10.0,North,16.1,21.9,N/A,,Clear,10,2012-11-15 10:16:00
1:36 AM,12.2,-2.2,53,30.04,10.0,North,12.7,20.7,N/A,,Clear,360,2012-11-15 10:36:00
1:56 AM,12.2,-2.2,53,30.05,10.0,NNW,10.4,-,N/A,,Clear,330,2012-11-15 10:56:00
2:16 AM,10.4,1.4,67,30.06,10.0,NW,13.8,18.4,N/A,,Clear,310,2012-11-15 11:16:00
2:36 AM,12.2,-0.4,57,30.07,10.0,NW,12.7,-,N/A,,Clear,310,2012-11-15 11:36:00
2:56 AM,10.4,-0.4,62,30.09,10.0,NW,11.5,-,N/A,,Clear,310,2012-11-15 11:56:00
3:16 AM,12.2,1.4,62,30.09,10.0,North,12.7,-,N/A,,Clear,350,2012-11-15 12:16:00
3:36 AM,12.2,-2.2,53,30.09,10.0,North,17.3,24.2,N/A,,Clear,360,2012-11-15 12:36:00
3:56 AM,12.2,-2.2,53,30.10,10.0,North,13.8,25.3,N/A,,Clear,360,2012-11-15 12:56:00
4:16 AM,12.2,-2.2,53,30.11,10.0,North,15.0,19.6,N/A,,Clear,360,2012-11-15 13:16:00
4:36 AM,12.2,-2.2,53,30.12,10.0,North,11.5,-,N/A,,Clear,360,2012-11-15 13:36:00
4:56 AM,12.2,-2.2,53,30.13,10.0,NNW,5.8,-,N/A,,Clear,330,2012-11-15 13:56:00
5:36 AM,12.2,-2.2,53,30.14,10.0,NW,8.1,-,N/A,,Clear,310,2012-11-15 14:36:00
5:56 AM,12.2,-0.4,57,30.14,10.0,North,5.8,-,N/A,,Clear,350,2012-11-15 14:56:00
6:16 AM,12.2,-2.2,53,30.15,10.0,NW,3.5,-,N/A,,Clear,320,2012-11-15 15:16:00
6:36 AM,12.2,-0.4,57,30.16,10.0,NW,6.9,-,N/A,,Clear,310,2012-11-15 15:36:00
6:56 AM,12.2,-0.4,57,30.17,10.0,NW,8.1,-,N/A,,Clear,320,2012-11-15 15:56:00
7:16 AM,12.2,-0.4,57,30.17,10.0,North,13.8,-,N/A,,Clear,360,2012-11-15 16:16:00
7:36 AM,12.2,-2.2,53,30.17,10.0,North,13.8,-,N/A,,Clear,350,2012-11-15 16:36:00
7:56 AM,12.2,-0.4,57,30.18,10.0,NNW,16.1,20.7,N/A,,Clear,340,2012-11-15 16:56:00
8:16 AM,12.2,-2.2,53,30.18,10.0,North,13.8,-,N/A,,Clear,350,2012-11-15 17:16:00
8:36 AM,12.2,-2.2,53,30.19,10.0,NNW,12.7,-,N/A,,Clear,330,2012-11-15 17:36:00
8:56 AM,12.2,-0.4,57,30.20,10.0,NNW,9.2,-,N/A,,Clear,330,2012-11-15 17:56:00
9:16 AM,12.2,-0.4,57,30.20,10.0,NW,9.2,-,N/A,,Clear,320,2012-11-15 18:16:00
9:36 AM,12.2,-0.4,57,30.21,10.0,NW,6.9,-,N/A,,Clear,320,2012-11-15 18:36:00
9:56 AM,12.2,-0.4,57,30.21,10.0,NW,4.6,-,N/A,,Clear,320,2012-11-15 18:56:00
10:16 AM,12.2,-0.4,57,30.22,10.0,Calm,Calm,-,N/A,,Clear,0,2012-11-15 19:16:00
10:56 AM,12.2,1.4,62,30.22,10.0,NW,5.8,-,N/A,,Clear,320,2012-11-15 19:56:00
11:16 AM,12.2,1.4,62,30.22,10.0,NNW,8.1,-,N/A,,Clear,330,2012-11-15 20:16:00
11:36 AM,14.0,3.2,62,30.23,9.0,NNW,13.8,19.6,N/A,,Clear,340,2012-11-15 20:36:00
11:56 AM,15.8,3.2,58,30.24,10.0,NNW,10.4,-,N/A,,Clear,340,2012-11-15 20:56:00
12:16 PM,14.0,1.4,57,30.24,10.0,North,10.4,-,N/A,,Clear,360,2012-11-15 21:16:00
12:36 PM,14.0,3.2,62,30.25,10.0,NNW,8.1,-,N/A,,Clear,340,2012-11-15 21:36:00
12:56 PM,15.8,5.0,62,30.25,9.0,North,8.1,-,N/A,,Clear,360,2012-11-15 21:56:00
1:16 PM,15.8,3.2,58,30.24,5.0,North,13.8,19.6,N/A,,Clear,360,2012-11-15 22:16:00
1:36 PM,17.6,5.0,58,30.24,10.0,North,12.7,-,N/A,,Clear,360,2012-11-15 22:36:00
1:56 PM,17.6,3.2,53,30.24,9.0,North,13.8,19.6,N/A,,Clear,350,2012-11-15 22:56:00
2:16 PM,17.6,5.0,58,30.24,10.0,NNW,11.5,-,N/A,,Clear,330,2012-11-15 23:16:00
2:36 PM,17.6,6.8,63,30.25,8.0,NW,13.8,-,N/A,,Clear,320,2012-11-15 23:36:00
2:56 PM,17.6,8.6,68,30.25,7.0,NW,16.1,-,N/A,,Clear,320,2012-11-15 23:56:00
3:16 PM,17.6,6.8,63,30.26,10.0,NNW,13.8,-,N/A,,Clear,330,2012-11-16 00:16:00
3:36 PM,17.6,5.0,58,30.26,10.0,NNW,17.3,23.0,N/A,,Clear,340,2012-11-16 00:36:00
3:56 PM,17.6,6.8,63,30.25,10.0,North,18.4,25.3,N/A,,Clear,350,2012-11-16 00:56:00
4:16 PM,17.6,5.0,58,30.26,9.0,North,16.1,26.5,N/A,,Clear,350,2012-11-16 01:16:00
4:36 PM,15.8,6.8,68,30.27,10.0,NNW,10.4,-,N/A,,Clear,340,2012-11-16 01:36:00
4:56 PM,17.6,6.8,63,30.27,10.0,North,10.4,-,N/A,,Clear,350,2012-11-16 01:56:00
5:16 PM,15.8,6.8,68,30.26,10.0,North,13.8,19.6,N/A,,Clear,10,2012-11-16 02:16:00
5:36 PM,15.8,5.0,62,30.27,10.0,NNE,10.4,-,N/A,,Clear,30,2012-11-16 02:36:00
5:56 PM,15.8,3.2,58,30.26,10.0,North,16.1,-,N/A,,Clear,360,2012-11-16 02:56:00
6:16 PM,15.8,6.8,68,30.27,10.0,North,15.0,-,N/A,,Clear,10,2012-11-16 03:16:00
6:36 PM,15.8,6.8,68,30.27,10.0,North,16.1,-,N/A,,Clear,10,2012-11-16 03:36:00
6:56 PM,14.0,5.0,67,30.28,10.0,NNE,8.1,-,N/A,,Clear,30,2012-11-16 03:56:00
7:16 PM,12.2,1.4,62,30.29,10.0,East,3.5,-,N/A,,Clear,80,2012-11-16 04:16:00
7:56 PM,15.8,8.6,73,30.30,10.0,North,3.5,-,N/A,,Clear,10,2012-11-16 04:56:00
8:16 PM,17.6,5.0,58,30.30,10.0,NE,4.6,-,N/A,,Clear,40,2012-11-16 05:16:00
8:36 PM,15.8,1.4,53,30.31,10.0,Calm,Calm,-,N/A,,Clear,0,2012-11-16 05:36:00
8:56 PM,15.8,6.8,68,30.31,10.0,NNW,6.9,-,N/A,,Clear,330,2012-11-16 05:56:00
9:16 PM,15.8,6.8,68,30.31,10.0,North,10.4,-,N/A,,Clear,350,2012-11-16 06:16:00
9:36 PM,14.0,6.8,73,30.31,10.0,NNE,6.9,-,N/A,,Clear,20,2012-11-16 06:36:00
9:56 PM,12.2,5.0,73,30.30,10.0,North,8.1,-,N/A,,Clear,10,2012-11-16 06:56:00
10:16 PM,10.4,3.2,73,30.30,10.0,NNE,8.1,-,N/A,,Clear,30,2012-11-16 07:16:00
10:36 PM,8.6,1.4,73,30.31,10.0,NNE,6.9,-,N/A,,Clear,30,2012-11-16 07:36:00
11:16 PM,12.2,10.4,92,30.32,10.0,WNW,3.5,-,N/A,,Clear,300,2012-11-16 08:16:00
11:36 PM,14.0,8.6,79,30.32,10.0,NW,4.6,-,N/A,,Clear,310,2012-11-16 08:36:00
11:56 PM,15.8,8.6,73,30.32,10.0,WNW,4.6,-,N/A,,Clear,300,2012-11-16 08:56:00